Year,Month,Day,Hour,Minute,Value (Times are PST for temperature in C)
2018,12,14,00,00,9.30
2018,12,14,00,01,9.30
2018,12,14,00,02,9.30
2018,12,14,00,03,9.30
2018,12,14,00,04,9.30
2018,12,14,00,05,9.30
2018,12,14,00,06,9.30
2018,12,14,00,07,9.30
2018,12,14,00,08,9.30
2018,12,14,00,09,9.30
2018,12,14,00,10,9.30
2018,12,14,00,11,9.30
2018,12,14,00,12,9.30
2018,12,14,00,13,9.30
2018,12,14,00,14,9.30
2018,12,14,00,15,9.30
2018,12,14,00,16,9.30
2018,12,14,00,17,9.30
2018,12,14,00,18,9.30
2018,12,14,00,19,9.30
2018,12,14,00,20,9.30
2018,12,14,00,21,9.30
2018,12,14,00,22,9.40
2018,12,14,00,23,9.40
2018,12,14,00,24,9.40
2018,12,14,00,25,9.40
2018,12,14,00,26,9.40
2018,12,14,00,27,9.40
2018,12,14,00,28,9.50
2018,12,14,00,29,9.50
2018,12,14,00,30,9.50
2018,12,14,00,31,9.50
2018,12,14,00,32,9.50
2018,12,14,00,33,9.50
2018,12,14,00,34,9.50
2018,12,14,00,35,9.60
2018,12,14,00,36,9.60
2018,12,14,00,37,9.60
2018,12,14,00,38,9.60
2018,12,14,00,39,9.60
2018,12,14,00,40,9.60
2018,12,14,00,41,9.60
2018,12,14,00,42,9.60
2018,12,14,00,43,9.60
2018,12,14,00,44,9.60
2018,12,14,00,45,9.60
2018,12,14,00,46,9.60
2018,12,14,00,47,9.60
2018,12,14,00,48,9.60
2018,12,14,00,49,9.70
2018,12,14,00,50,9.70
2018,12,14,00,51,9.70
2018,12,14,00,52,9.70
2018,12,14,00,53,9.70
2018,12,14,00,54,9.70
2018,12,14,00,55,9.70
2018,12,14,00,56,9.70
2018,12,14,00,57,9.70
2018,12,14,00,58,9.70
2018,12,14,00,59,9.70
2018,12,14,01,00,9.70
2018,12,14,01,01,9.70
2018,12,14,01,02,9.70
2018,12,14,01,03,9.70
2018,12,14,01,04,9.70
2018,12,14,01,05,9.70
2018,12,14,01,06,9.70
2018,12,14,01,07,9.70
2018,12,14,01,08,9.70
2018,12,14,01,09,9.70
2018,12,14,01,10,9.70
2018,12,14,01,11,9.80
2018,12,14,01,12,9.80
2018,12,14,01,13,9.80
2018,12,14,01,14,9.80
2018,12,14,01,15,9.70
2018,12,14,01,16,9.70
2018,12,14,01,17,9.70
2018,12,14,01,18,9.70
2018,12,14,01,19,9.70
2018,12,14,01,20,9.70
2018,12,14,01,21,9.70
2018,12,14,01,22,9.70
2018,12,14,01,23,9.70
2018,12,14,01,24,9.70
2018,12,14,01,25,9.70
2018,12,14,01,26,9.60
2018,12,14,01,27,9.60
2018,12,14,01,28,9.60
2018,12,14,01,29,9.60
2018,12,14,01,30,9.60
2018,12,14,01,31,9.60
2018,12,14,01,32,9.50
2018,12,14,01,33,9.50
2018,12,14,01,34,9.50
2018,12,14,01,35,9.50
2018,12,14,01,36,9.50
2018,12,14,01,37,9.50
2018,12,14,01,38,9.50
2018,12,14,01,39,9.50
2018,12,14,01,40,9.50
2018,12,14,01,41,9.60
2018,12,14,01,42,9.60
2018,12,14,01,43,9.60
2018,12,14,01,44,9.60
2018,12,14,01,45,9.60
2018,12,14,01,46,9.60
2018,12,14,01,47,9.60
2018,12,14,01,48,9.60
2018,12,14,01,49,9.60
2018,12,14,01,50,9.60
2018,12,14,01,51,9.60
2018,12,14,01,52,9.60
2018,12,14,01,53,9.60
2018,12,14,01,54,9.60
2018,12,14,01,55,9.60
2018,12,14,01,56,9.60
2018,12,14,01,57,9.60
2018,12,14,01,58,9.60
2018,12,14,01,59,9.60
2018,12,14,02,00,9.60
2018,12,14,02,01,9.60
2018,12,14,02,02,9.60
2018,12,14,02,03,9.60
2018,12,14,02,04,9.60
2018,12,14,02,05,9.60
2018,12,14,02,06,9.60
2018,12,14,02,07,9.60
2018,12,14,02,08,9.60
2018,12,14,02,09,9.50
2018,12,14,02,10,9.60
2018,12,14,02,11,9.50
2018,12,14,02,12,9.50
2018,12,14,02,13,9.50
2018,12,14,02,14,9.50
2018,12,14,02,15,9.50
2018,12,14,02,16,9.40
2018,12,14,02,17,9.40
2018,12,14,02,18,9.40
2018,12,14,02,19,9.40
2018,12,14,02,20,9.40
2018,12,14,02,21,9.40
2018,12,14,02,22,9.40
2018,12,14,02,23,9.40
2018,12,14,02,24,9.40
2018,12,14,02,25,9.40
2018,12,14,02,26,9.40
2018,12,14,02,27,9.40
2018,12,14,02,28,9.40
2018,12,14,02,29,9.40
2018,12,14,02,30,9.30
2018,12,14,02,31,9.40
2018,12,14,02,32,9.30
2018,12,14,02,33,9.40
2018,12,14,02,34,9.40
2018,12,14,02,35,9.40
2018,12,14,02,36,9.40
2018,12,14,02,37,9.40
2018,12,14,02,38,9.40
2018,12,14,02,39,9.40
2018,12,14,02,40,9.40
2018,12,14,02,41,9.40
2018,12,14,02,42,9.40
2018,12,14,02,43,9.40
2018,12,14,02,44,9.40
2018,12,14,02,45,9.40
2018,12,14,02,46,9.40
2018,12,14,02,47,9.40
2018,12,14,02,48,9.30
2018,12,14,02,49,9.30
2018,12,14,02,50,9.30
2018,12,14,02,51,9.30
2018,12,14,02,52,9.30
2018,12,14,02,53,9.30
2018,12,14,02,54,9.30
2018,12,14,02,55,9.30
2018,12,14,02,56,9.30
2018,12,14,02,57,9.30
2018,12,14,02,58,9.30
2018,12,14,02,59,9.30
2018,12,14,03,00,9.30
2018,12,14,03,01,9.20
2018,12,14,03,02,9.30
2018,12,14,03,03,9.30
2018,12,14,03,04,9.30
2018,12,14,03,05,9.20
2018,12,14,03,06,9.20
2018,12,14,03,07,9.30
2018,12,14,03,08,9.30
2018,12,14,03,09,9.30
2018,12,14,03,10,9.30
2018,12,14,03,11,9.30
2018,12,14,03,12,9.30
2018,12,14,03,13,9.20
2018,12,14,03,14,9.20
2018,12,14,03,15,9.20
2018,12,14,03,16,9.20
2018,12,14,03,17,9.30
2018,12,14,03,18,9.30
2018,12,14,03,19,9.30
2018,12,14,03,20,9.30
2018,12,14,03,21,9.30
2018,12,14,03,22,9.30
2018,12,14,03,23,9.30
2018,12,14,03,24,9.30
2018,12,14,03,25,9.30
2018,12,14,03,26,9.30
2018,12,14,03,27,9.30
2018,12,14,03,28,9.30
2018,12,14,03,29,9.30
2018,12,14,03,30,9.20
2018,12,14,03,31,9.20
2018,12,14,03,32,9.20
2018,12,14,03,33,9.20
2018,12,14,03,34,9.30
2018,12,14,03,35,9.30
2018,12,14,03,36,9.30
2018,12,14,03,37,9.30
2018,12,14,03,38,9.30
2018,12,14,03,39,9.30
2018,12,14,03,40,9.30
2018,12,14,03,41,9.30
2018,12,14,03,42,9.30
2018,12,14,03,43,9.30
2018,12,14,03,44,9.30
2018,12,14,03,45,9.30
2018,12,14,03,46,9.30
2018,12,14,03,47,9.30
2018,12,14,03,48,9.30
2018,12,14,03,49,9.40
2018,12,14,03,50,9.40
2018,12,14,03,51,9.40
2018,12,14,03,52,9.40
2018,12,14,03,53,9.40
2018,12,14,03,54,9.30
2018,12,14,03,55,9.30
2018,12,14,03,56,9.30
2018,12,14,03,57,9.30
2018,12,14,03,58,9.30
2018,12,14,03,59,9.30
2018,12,14,04,00,9.30
2018,12,14,04,01,9.30
2018,12,14,04,02,9.30
2018,12,14,04,03,9.30
2018,12,14,04,04,9.40
2018,12,14,04,05,9.40
2018,12,14,04,06,9.40
2018,12,14,04,07,9.40
2018,12,14,04,08,9.40
2018,12,14,04,09,9.40
2018,12,14,04,10,9.30
2018,12,14,04,11,9.30
2018,12,14,04,12,9.30
2018,12,14,04,13,9.30
2018,12,14,04,14,9.30
2018,12,14,04,15,9.20
2018,12,14,04,16,9.20
2018,12,14,04,17,9.20
2018,12,14,04,18,9.20
2018,12,14,04,19,9.20
2018,12,14,04,20,9.20
2018,12,14,04,21,9.20
2018,12,14,04,22,9.20
2018,12,14,04,23,9.20
2018,12,14,04,24,9.20
2018,12,14,04,25,9.20
2018,12,14,04,26,9.20
2018,12,14,04,27,9.20
2018,12,14,04,28,9.30
2018,12,14,04,29,9.30
2018,12,14,04,30,9.20
2018,12,14,04,31,9.20
2018,12,14,04,32,9.30
2018,12,14,04,33,9.30
2018,12,14,04,34,9.30
2018,12,14,04,35,9.20
2018,12,14,04,36,9.20
2018,12,14,04,37,9.20
2018,12,14,04,38,9.20
2018,12,14,04,39,9.30
2018,12,14,04,40,9.30
2018,12,14,04,41,9.30
2018,12,14,04,42,9.30
2018,12,14,04,43,9.30
2018,12,14,04,44,9.30
2018,12,14,04,45,9.40
2018,12,14,04,46,9.40
2018,12,14,04,47,9.40
2018,12,14,04,48,9.30
2018,12,14,04,49,9.30
2018,12,14,04,50,9.30
2018,12,14,04,51,9.30
2018,12,14,04,52,9.30
2018,12,14,04,53,9.30
2018,12,14,04,54,9.30
2018,12,14,04,55,9.40
2018,12,14,04,56,9.40
2018,12,14,04,57,9.40
2018,12,14,04,58,9.40
2018,12,14,04,59,9.50
2018,12,14,05,00,9.50
2018,12,14,05,01,9.50
2018,12,14,05,02,9.50
2018,12,14,05,03,9.50
2018,12,14,05,04,9.60
2018,12,14,05,05,9.60
2018,12,14,05,06,9.60
2018,12,14,05,07,9.60
2018,12,14,05,08,9.60
2018,12,14,05,09,9.60
2018,12,14,05,10,9.60
2018,12,14,05,11,9.50
2018,12,14,05,12,9.50
2018,12,14,05,13,9.50
2018,12,14,05,14,9.50
2018,12,14,05,15,9.50
2018,12,14,05,16,9.40
2018,12,14,05,17,9.40
2018,12,14,05,18,9.40
2018,12,14,05,19,9.50
2018,12,14,05,20,9.50
2018,12,14,05,21,9.50
2018,12,14,05,22,9.50
2018,12,14,05,23,9.50
2018,12,14,05,24,9.50
2018,12,14,05,25,9.50
2018,12,14,05,26,9.50
2018,12,14,05,27,9.50
2018,12,14,05,28,9.50
2018,12,14,05,29,9.40
2018,12,14,05,30,9.40
2018,12,14,05,31,9.40
2018,12,14,05,32,9.40
2018,12,14,05,33,9.40
2018,12,14,05,34,9.40
2018,12,14,05,35,9.50
2018,12,14,05,36,9.50
2018,12,14,05,37,9.60
2018,12,14,05,38,9.60
2018,12,14,05,39,9.60
2018,12,14,05,40,9.60
2018,12,14,05,41,9.60
2018,12,14,05,42,9.60
2018,12,14,05,43,9.50
2018,12,14,05,44,9.50
2018,12,14,05,45,9.50
2018,12,14,05,46,9.50
2018,12,14,05,47,9.50
2018,12,14,05,48,9.50
2018,12,14,05,49,9.60
2018,12,14,05,50,9.60
2018,12,14,05,51,9.60
2018,12,14,05,52,9.60
2018,12,14,05,53,9.60
2018,12,14,05,54,9.70
2018,12,14,05,55,9.70
2018,12,14,05,56,9.70
2018,12,14,05,57,9.80
2018,12,14,05,58,9.80
2018,12,14,05,59,9.80
2018,12,14,06,00,9.80
2018,12,14,06,01,9.90
2018,12,14,06,02,9.90
2018,12,14,06,03,9.90
2018,12,14,06,04,10.00
2018,12,14,06,05,10.00
2018,12,14,06,06,10.10
2018,12,14,06,07,10.10
2018,12,14,06,08,10.20
2018,12,14,06,09,10.20
2018,12,14,06,10,10.30
2018,12,14,06,11,10.30
2018,12,14,06,12,10.30
2018,12,14,06,13,10.30
2018,12,14,06,14,10.30
2018,12,14,06,15,10.30
2018,12,14,06,16,10.30
2018,12,14,06,17,10.30
2018,12,14,06,18,10.30
2018,12,14,06,19,10.30
2018,12,14,06,20,10.30
2018,12,14,06,21,10.30
2018,12,14,06,22,10.40
2018,12,14,06,23,10.40
2018,12,14,06,24,10.40
2018,12,14,11,59,15.90
2018,12,14,12,00,15.90
2018,12,14,12,01,15.90
2018,12,14,12,02,15.90
2018,12,14,12,03,15.80
2018,12,14,12,04,15.60
2018,12,14,12,05,15.50
2018,12,14,12,06,15.40
2018,12,14,12,07,15.30
2018,12,14,12,08,15.20
2018,12,14,12,09,15.20
2018,12,14,12,10,15.20
2018,12,14,12,11,15.20
2018,12,14,12,12,15.20
2018,12,14,12,13,15.20
2018,12,14,12,14,15.30
2018,12,14,12,15,15.30
2018,12,14,12,16,15.30
2018,12,14,12,17,15.30
2018,12,14,12,18,15.40
2018,12,14,12,19,15.50
2018,12,14,12,20,15.50
2018,12,14,12,21,15.60
2018,12,14,12,22,15.80
2018,12,14,12,23,16.00
2018,12,14,12,24,16.00
2018,12,14,12,25,16.00
2018,12,14,12,26,16.00
2018,12,14,12,27,16.10
2018,12,14,12,28,16.00
2018,12,14,12,29,15.90
2018,12,14,12,30,15.80
2018,12,14,12,31,15.80
2018,12,14,12,32,15.80
2018,12,14,12,33,15.80
2018,12,14,12,34,15.80
2018,12,14,12,35,15.80
2018,12,14,12,36,15.60
2018,12,14,12,37,15.50
2018,12,14,12,38,15.30
2018,12,14,12,39,15.30
2018,12,14,12,40,15.30
2018,12,14,12,41,15.30
2018,12,14,12,42,15.30
2018,12,14,12,43,15.30
2018,12,14,12,44,15.20
2018,12,14,12,45,15.10
2018,12,14,12,46,15.30
2018,12,14,12,47,15.60
2018,12,14,12,48,15.90
2018,12,14,12,49,15.90
2018,12,14,12,50,15.90
2018,12,14,12,51,15.90
2018,12,14,12,52,15.80
2018,12,14,12,53,15.70
2018,12,14,12,54,15.60
2018,12,14,12,55,15.50
2018,12,14,12,56,15.40
2018,12,14,12,57,15.30
2018,12,14,12,58,15.40
2018,12,14,12,59,15.80
2018,12,14,13,00,16.10
2018,12,14,13,01,16.40
2018,12,14,13,02,16.50
2018,12,14,13,03,16.60
2018,12,14,13,04,16.60
2018,12,14,13,05,16.60
2018,12,14,13,06,16.50
2018,12,14,13,07,16.40
2018,12,14,13,08,16.30
2018,12,14,13,09,16.10
2018,12,14,13,10,16.10
2018,12,14,13,11,16.00
2018,12,14,13,12,15.80
2018,12,14,13,13,15.80
2018,12,14,13,14,15.60
2018,12,14,13,15,15.50
2018,12,14,13,16,15.60
2018,12,14,13,17,15.80
2018,12,14,13,18,15.90
2018,12,14,13,19,16.10
2018,12,14,13,20,16.20
2018,12,14,13,21,16.30
2018,12,14,13,22,16.40
2018,12,14,13,23,16.50
2018,12,14,13,24,16.50
2018,12,14,13,25,16.50
2018,12,14,13,26,16.60
2018,12,14,13,27,16.60
2018,12,14,13,28,16.30
2018,12,14,13,29,16.20
2018,12,14,13,30,16.10
2018,12,14,13,31,16.10
2018,12,14,13,32,16.10
2018,12,14,13,33,16.10
2018,12,14,13,34,16.00
2018,12,14,13,35,16.00
2018,12,14,13,36,15.90
2018,12,14,13,37,15.80
2018,12,14,13,38,15.90
2018,12,14,13,39,16.00
2018,12,14,13,40,16.00
2018,12,14,13,41,16.10
2018,12,14,13,42,16.10
2018,12,14,13,43,16.00
2018,12,14,13,44,15.90
2018,12,14,13,45,15.80
2018,12,14,13,46,15.50
2018,12,14,13,47,15.30
2018,12,14,13,48,15.20
2018,12,14,13,49,15.20
2018,12,14,13,50,15.20
2018,12,14,13,51,15.10
2018,12,14,13,52,15.10
2018,12,14,13,53,15.00
2018,12,14,13,54,14.90
2018,12,14,13,55,14.70
2018,12,14,13,56,14.80
2018,12,14,13,57,15.00
2018,12,14,13,58,15.10
2018,12,14,13,59,15.10
2018,12,14,14,00,15.00
2018,12,14,14,01,14.90
2018,12,14,14,02,14.80
2018,12,14,14,03,14.80
2018,12,14,14,04,14.90
2018,12,14,14,05,15.00
2018,12,14,14,06,14.90
2018,12,14,14,07,15.00
2018,12,14,14,08,15.00
2018,12,14,14,09,14.90
2018,12,14,14,10,15.00
2018,12,14,14,11,15.20
2018,12,14,14,12,15.40
2018,12,14,14,13,15.50
2018,12,14,14,14,15.50
2018,12,14,14,15,15.40
2018,12,14,14,16,15.10
2018,12,14,14,17,14.80
2018,12,14,14,18,14.70
2018,12,14,14,19,14.80
2018,12,14,14,20,15.00
2018,12,14,14,21,15.20
2018,12,14,14,22,15.20
2018,12,14,14,23,15.10
2018,12,14,14,24,15.10
2018,12,14,14,25,15.10
2018,12,14,14,26,15.00
2018,12,14,14,27,15.00
2018,12,14,14,28,15.10
2018,12,14,14,29,15.20
2018,12,14,14,30,15.20
2018,12,14,14,31,15.00
2018,12,14,14,32,14.80
2018,12,14,14,33,14.60
2018,12,14,14,34,14.40
2018,12,14,14,35,14.30
2018,12,14,14,36,14.40
2018,12,14,14,37,14.70
2018,12,14,14,38,14.80
2018,12,14,14,39,14.80
2018,12,14,14,40,14.70
2018,12,14,14,41,14.70
2018,12,14,14,42,14.60
2018,12,14,14,43,14.50
2018,12,14,14,44,14.50
2018,12,14,14,45,14.50
2018,12,14,14,46,14.40
2018,12,14,14,47,14.30
2018,12,14,14,48,14.30
2018,12,14,14,49,14.40
2018,12,14,14,50,14.40
2018,12,14,14,51,14.40
2018,12,14,14,52,14.30
2018,12,14,14,53,14.30
2018,12,14,14,54,14.20
2018,12,14,14,55,14.20
2018,12,14,14,56,14.20
2018,12,14,14,57,14.20
2018,12,14,14,58,14.00
2018,12,14,14,59,13.90
2018,12,14,15,00,13.70
2018,12,14,15,01,13.50
2018,12,14,15,02,13.40
2018,12,14,15,03,13.30
2018,12,14,15,04,13.30
2018,12,14,15,05,13.20
2018,12,14,15,06,13.20
2018,12,14,15,07,13.10
2018,12,14,15,08,13.00
2018,12,14,15,09,12.90
2018,12,14,15,10,12.80
2018,12,14,15,11,12.80
2018,12,14,15,12,12.80
2018,12,14,15,13,12.70
2018,12,14,15,14,12.70
2018,12,14,15,15,12.60
2018,12,14,15,16,12.60
2018,12,14,15,17,12.60
2018,12,14,15,18,12.50
2018,12,14,15,19,12.50
2018,12,14,15,20,12.50
2018,12,14,15,21,12.40
2018,12,14,15,22,12.40
2018,12,14,15,23,12.40
2018,12,14,15,24,12.30
2018,12,14,15,25,12.30
2018,12,14,15,26,12.20
2018,12,14,15,27,12.30
2018,12,14,15,28,12.40
2018,12,14,15,29,12.40
2018,12,14,15,30,12.40
2018,12,14,15,31,12.40
2018,12,14,15,32,12.40
2018,12,14,15,33,12.30
2018,12,14,15,34,12.30
2018,12,14,15,35,12.20
2018,12,14,15,36,12.10
2018,12,14,15,37,12.20
2018,12,14,15,38,12.10
2018,12,14,15,39,12.10
2018,12,14,15,40,12.20
2018,12,14,15,41,12.20
2018,12,14,15,42,12.20
2018,12,14,15,43,12.20
2018,12,14,15,44,12.20
2018,12,14,15,45,12.20
2018,12,14,15,46,12.20
2018,12,14,15,47,12.20
2018,12,14,15,48,12.10
2018,12,14,15,49,12.10
2018,12,14,15,50,12.10
2018,12,14,15,51,12.00
2018,12,14,15,52,12.00
2018,12,14,15,53,12.00
2018,12,14,15,54,11.90
2018,12,14,15,55,11.90
2018,12,14,15,56,11.90
2018,12,14,15,57,11.90
2018,12,14,15,58,11.90
2018,12,14,15,59,11.90
2018,12,14,16,00,11.90
2018,12,14,16,01,11.90
2018,12,14,16,02,12.00
2018,12,14,16,03,12.00
2018,12,14,16,04,12.00
2018,12,14,16,05,12.00
2018,12,14,16,06,12.00
2018,12,14,16,07,12.00
2018,12,14,16,08,12.00
2018,12,14,16,09,11.90
2018,12,14,16,10,11.90
2018,12,14,16,11,11.90
2018,12,14,16,12,11.90
2018,12,14,16,13,11.90
2018,12,14,16,14,11.90
2018,12,14,16,15,11.90
2018,12,14,16,16,11.90
2018,12,14,16,17,11.90
2018,12,14,16,18,12.00
2018,12,14,16,19,12.00
2018,12,14,16,20,12.00
2018,12,14,16,21,12.00
2018,12,14,16,22,12.10
2018,12,14,16,23,12.00
2018,12,14,16,24,12.00
2018,12,14,16,25,11.90
2018,12,14,16,26,11.90
2018,12,14,16,27,11.90
2018,12,14,16,28,11.80
2018,12,14,16,29,11.80
2018,12,14,16,30,11.80
2018,12,14,16,31,11.80
2018,12,14,16,32,11.80
2018,12,14,16,33,11.80
2018,12,14,16,34,11.80
2018,12,14,16,35,11.80
2018,12,14,16,36,11.80
2018,12,14,16,37,11.80
2018,12,14,16,38,11.80
2018,12,14,16,39,11.90
2018,12,14,16,40,11.90
2018,12,14,16,41,11.90
2018,12,14,16,42,11.90
2018,12,14,16,43,11.90
2018,12,14,16,44,11.80
2018,12,14,16,45,11.70
2018,12,14,16,46,11.70
2018,12,14,16,47,11.60
2018,12,14,16,48,11.60
2018,12,14,16,49,11.50
2018,12,14,16,50,11.50
2018,12,14,16,51,11.40
2018,12,14,16,52,11.40
2018,12,14,16,53,11.30
2018,12,14,16,54,11.30
2018,12,14,16,55,11.20
2018,12,14,16,56,11.20
2018,12,14,16,57,11.10
2018,12,14,16,58,11.10
2018,12,14,16,59,11.10
2018,12,14,17,00,11.10
2018,12,14,17,01,11.10
2018,12,14,17,02,11.10
2018,12,14,17,03,11.00
2018,12,14,17,04,11.00
2018,12,14,17,05,11.00
2018,12,14,17,06,11.00
2018,12,14,17,07,10.90
2018,12,14,17,08,11.00
2018,12,14,17,09,11.20
2018,12,14,17,10,10.90
2018,12,14,17,11,10.20
2018,12,14,17,12,9.70
2018,12,14,17,13,9.30
2018,12,14,17,14,9.00
2018,12,14,17,15,8.80
2018,12,14,17,16,8.70
2018,12,14,17,17,8.60
2018,12,14,17,18,8.50
2018,12,14,17,19,8.50
2018,12,14,17,20,8.40
2018,12,14,17,21,8.30
2018,12,14,17,22,8.30
2018,12,14,17,23,8.30
2018,12,14,17,24,8.30
2018,12,14,17,25,8.30
2018,12,14,17,26,8.30
2018,12,14,17,27,8.30
2018,12,14,17,28,8.30
2018,12,14,17,29,8.30
2018,12,14,17,30,8.30
2018,12,14,17,31,8.30
2018,12,14,17,32,8.30
2018,12,14,17,33,8.30
2018,12,14,17,34,8.30
2018,12,14,17,35,8.30
2018,12,14,17,36,8.30
2018,12,14,17,37,8.30
2018,12,14,17,38,8.30
2018,12,14,17,39,8.30
2018,12,14,17,40,8.30
2018,12,14,17,41,8.30
2018,12,14,17,42,8.30
2018,12,14,17,43,8.20
2018,12,14,17,44,8.10
2018,12,14,17,45,8.10
2018,12,14,17,46,8.10
2018,12,14,17,47,8.10
2018,12,14,17,48,8.00
2018,12,14,17,49,7.90
2018,12,14,17,50,7.90
2018,12,14,17,51,7.80
2018,12,14,17,52,7.80
2018,12,14,17,53,7.80
2018,12,14,17,54,7.80
2018,12,14,17,55,7.80
2018,12,14,17,56,7.80
2018,12,14,17,57,7.80
2018,12,14,17,58,7.80
2018,12,14,17,59,7.80
2018,12,14,18,00,7.80
2018,12,14,18,01,7.80
2018,12,14,18,02,7.80
2018,12,14,18,03,7.80
2018,12,14,18,04,7.80
2018,12,14,18,05,7.80
2018,12,14,18,06,7.80
2018,12,14,18,07,7.80
2018,12,14,18,08,7.80
2018,12,14,18,09,7.90
2018,12,14,18,10,7.90
2018,12,14,18,11,7.90
2018,12,14,18,12,7.90
2018,12,14,18,13,7.90
2018,12,14,18,14,7.80
2018,12,14,18,15,7.70
2018,12,14,18,16,7.70
2018,12,14,18,17,7.70
2018,12,14,18,18,7.70
2018,12,14,18,19,7.70
2018,12,14,18,20,7.70
2018,12,14,18,21,7.70
2018,12,14,18,22,7.60
2018,12,14,18,23,7.60
2018,12,14,18,24,7.60
2018,12,14,18,25,7.60
2018,12,14,18,26,7.70
2018,12,14,18,27,7.60
2018,12,14,18,28,7.60
2018,12,14,18,29,7.50
2018,12,14,18,30,7.60
2018,12,14,18,31,7.50
2018,12,14,18,32,7.60
2018,12,14,18,33,7.60
2018,12,14,18,34,7.60
2018,12,14,18,35,7.60
2018,12,14,18,36,7.60
2018,12,14,18,37,7.60
2018,12,14,18,38,7.60
2018,12,14,18,39,7.70
2018,12,14,18,40,7.70
2018,12,14,18,41,7.70
2018,12,14,18,42,7.70
2018,12,14,18,43,7.80
2018,12,14,18,44,7.80
2018,12,14,18,45,7.80
2018,12,14,18,46,7.90
2018,12,14,18,47,7.90
2018,12,14,18,48,7.80
2018,12,14,18,49,7.80
2018,12,14,18,50,7.80
2018,12,14,18,51,7.80
2018,12,14,18,52,7.90
2018,12,14,18,53,7.90
2018,12,14,18,54,7.90
2018,12,14,18,55,7.90
2018,12,14,18,56,7.90
2018,12,14,18,57,7.90
2018,12,14,18,58,7.90
2018,12,14,18,59,7.90
2018,12,14,19,00,7.90
2018,12,14,19,01,7.90
2018,12,14,19,02,8.00
2018,12,14,19,03,8.00
2018,12,14,19,04,8.00
2018,12,14,19,05,8.00
2018,12,14,19,06,7.90
2018,12,14,19,07,7.90
2018,12,14,19,08,7.90
2018,12,14,19,09,7.90
2018,12,14,19,10,7.90
2018,12,14,19,11,8.00
2018,12,14,19,12,8.00
2018,12,14,19,13,7.90
2018,12,14,19,14,7.90
2018,12,14,19,15,7.90
2018,12,14,19,16,7.90
2018,12,14,19,17,7.90
2018,12,14,19,18,7.90
2018,12,14,19,19,7.90
2018,12,14,19,20,7.90
2018,12,14,19,21,7.90
2018,12,14,19,22,7.90
2018,12,14,19,23,7.90
2018,12,14,19,24,7.90
2018,12,14,19,25,7.90
2018,12,14,19,26,7.90
2018,12,14,19,27,7.90
2018,12,14,19,28,7.90
2018,12,14,19,29,7.90
2018,12,14,19,30,8.00
2018,12,14,19,31,8.00
2018,12,14,19,32,8.00
2018,12,14,19,33,7.90
2018,12,14,19,34,8.00
2018,12,14,19,35,8.10
2018,12,14,19,36,8.00
2018,12,14,19,37,8.10
2018,12,14,19,38,8.10
2018,12,14,19,39,8.10
2018,12,14,19,40,8.10
2018,12,14,19,41,8.10
2018,12,14,19,42,8.10
2018,12,14,19,43,8.00
2018,12,14,19,44,7.80
2018,12,14,19,45,7.60
2018,12,14,19,46,7.50
2018,12,14,19,47,7.40
2018,12,14,19,48,7.30
2018,12,14,19,49,7.30
2018,12,14,19,50,7.30
2018,12,14,19,51,7.30
2018,12,14,19,52,7.30
2018,12,14,19,53,7.30
2018,12,14,19,54,7.40
2018,12,14,19,55,7.50
2018,12,14,19,56,7.50
2018,12,14,19,57,7.60
2018,12,14,19,58,7.70
2018,12,14,19,59,7.60
2018,12,14,20,00,7.70
2018,12,14,20,01,7.70
2018,12,14,20,02,7.70
2018,12,14,20,03,7.70
2018,12,14,20,04,7.80
2018,12,14,20,05,7.80
2018,12,14,20,06,7.80
2018,12,14,20,07,7.80
2018,12,14,20,08,7.90
2018,12,14,20,09,7.80
2018,12,14,20,10,7.80
2018,12,14,20,11,7.80
2018,12,14,20,12,7.70
2018,12,14,20,13,7.70
2018,12,14,20,14,7.60
2018,12,14,20,15,7.60
2018,12,14,20,16,7.40
2018,12,14,20,17,7.40
2018,12,14,20,18,7.40
2018,12,14,20,19,7.30
2018,12,14,20,20,7.20
2018,12,14,20,21,7.30
2018,12,14,20,22,7.40
2018,12,14,20,23,7.40
2018,12,14,20,24,7.40
2018,12,14,20,25,7.50
2018,12,14,20,26,7.60
2018,12,14,20,27,7.70
2018,12,14,20,28,7.70
2018,12,14,20,29,7.70
2018,12,14,20,30,7.70
2018,12,14,20,31,7.80
2018,12,14,20,32,7.80
2018,12,14,20,33,7.80
2018,12,14,20,34,7.80
2018,12,14,20,35,7.80
2018,12,14,20,36,7.80
2018,12,14,20,37,7.80
2018,12,14,20,38,7.80
2018,12,14,20,39,7.80
2018,12,14,20,40,7.80
2018,12,14,20,41,7.80
2018,12,14,20,42,7.80
2018,12,14,20,43,7.80
2018,12,14,20,44,7.80
2018,12,14,20,45,7.80
2018,12,14,20,46,7.80
2018,12,14,20,47,7.80
2018,12,14,20,48,7.80
2018,12,14,20,49,7.80
2018,12,14,20,50,7.80
2018,12,14,20,51,7.80
2018,12,14,20,52,7.90
2018,12,14,20,53,7.90
2018,12,14,20,54,7.90
2018,12,14,20,55,7.90
2018,12,14,20,56,7.90
2018,12,14,20,57,7.90
2018,12,14,20,58,7.90
2018,12,14,20,59,7.80
2018,12,14,21,00,7.80
2018,12,14,21,01,7.80
2018,12,14,21,02,7.80
2018,12,14,21,03,7.80
2018,12,14,21,04,7.80
2018,12,14,21,05,7.80
2018,12,14,21,06,7.80
2018,12,14,21,07,7.90
2018,12,14,21,08,7.90
2018,12,14,21,09,7.80
2018,12,14,21,10,7.80
2018,12,14,21,11,7.80
2018,12,14,21,12,7.80
2018,12,14,21,13,7.80
2018,12,14,21,14,7.80
2018,12,14,21,15,7.80
2018,12,14,21,16,7.80
2018,12,14,21,17,7.80
2018,12,14,21,18,7.80
2018,12,14,21,19,7.90
2018,12,14,21,20,7.90
2018,12,14,21,21,7.90
2018,12,14,21,22,7.90
2018,12,14,21,23,8.00
2018,12,14,21,24,8.00
2018,12,14,21,25,8.00
2018,12,14,21,26,8.00
2018,12,14,21,27,8.00
2018,12,14,21,28,8.00
2018,12,14,21,29,8.00
2018,12,14,21,30,8.00
2018,12,14,21,31,8.00
2018,12,14,21,32,8.10
2018,12,14,21,33,8.10
2018,12,14,21,34,8.10
2018,12,14,21,35,8.10
2018,12,14,21,36,8.10
2018,12,14,21,37,8.10
2018,12,14,21,38,8.10
2018,12,14,21,39,8.10
2018,12,14,21,40,8.10
2018,12,14,21,41,8.10
2018,12,14,21,42,8.10
2018,12,14,21,43,8.00
2018,12,14,21,44,7.90
2018,12,14,21,45,7.90
2018,12,14,21,46,7.80
2018,12,14,21,47,7.80
2018,12,14,21,48,7.80
2018,12,14,21,49,7.80
2018,12,14,21,50,7.80
2018,12,14,21,51,7.90
2018,12,14,21,52,7.90
2018,12,14,21,53,7.90
2018,12,14,21,54,7.90
2018,12,14,21,55,8.00
2018,12,14,21,56,8.00
2018,12,14,21,57,8.00
2018,12,14,21,58,8.00
2018,12,14,21,59,8.00
2018,12,14,22,00,8.00
2018,12,14,22,01,7.90
2018,12,14,22,02,7.90
2018,12,14,22,03,7.90
2018,12,14,22,04,7.90
2018,12,14,22,05,7.90
2018,12,14,22,06,8.00
2018,12,14,22,07,8.00
2018,12,14,22,08,8.00
2018,12,14,22,09,8.10
2018,12,14,22,10,8.10
2018,12,14,22,11,8.10
2018,12,14,22,12,8.10
2018,12,14,22,13,8.10
2018,12,14,22,14,8.10
2018,12,14,22,15,8.10
2018,12,14,22,16,8.10
2018,12,14,22,17,8.10
2018,12,14,22,18,8.20
2018,12,14,22,19,8.20
2018,12,14,22,20,8.20
2018,12,14,22,21,8.20
2018,12,14,22,22,8.20
2018,12,14,22,23,8.20
2018,12,14,22,24,8.20
2018,12,14,22,25,8.20
2018,12,14,22,26,8.20
2018,12,14,22,27,8.10
2018,12,14,22,28,8.10
2018,12,14,22,29,8.10
2018,12,14,22,30,8.10
2018,12,14,22,31,8.10
2018,12,14,22,32,8.20
2018,12,14,22,33,8.20
2018,12,14,22,34,8.20
2018,12,14,22,35,8.20
2018,12,14,22,36,8.20
2018,12,14,22,37,8.20
2018,12,14,22,38,8.20
2018,12,14,22,39,8.20
2018,12,14,22,40,8.20
2018,12,14,22,41,8.20
2018,12,14,22,42,8.20
2018,12,14,22,43,8.20
2018,12,14,22,44,8.20
2018,12,14,22,45,8.20
2018,12,14,22,46,8.20
2018,12,14,22,47,8.20
2018,12,14,22,48,8.20
2018,12,14,22,49,8.20
2018,12,14,22,50,8.20
2018,12,14,22,51,8.20
2018,12,14,22,52,8.20
2018,12,14,22,53,8.20
2018,12,14,22,54,8.20
2018,12,14,22,55,8.20
2018,12,14,22,56,8.10
2018,12,14,22,57,8.00
2018,12,14,22,58,8.00
2018,12,14,22,59,7.90
2018,12,14,23,00,7.80
2018,12,14,23,01,7.80
2018,12,14,23,02,7.80
2018,12,14,23,03,7.80
2018,12,14,23,04,7.80
2018,12,14,23,05,7.80
2018,12,14,23,06,7.90
2018,12,14,23,07,7.90
2018,12,14,23,08,7.90
2018,12,14,23,09,7.90
2018,12,14,23,10,7.90
2018,12,14,23,11,8.00
2018,12,14,23,12,8.00
2018,12,14,23,13,8.00
2018,12,14,23,14,8.00
2018,12,14,23,15,8.10
2018,12,14,23,16,8.00
2018,12,14,23,17,8.10
2018,12,14,23,18,8.10
2018,12,14,23,19,8.10
2018,12,14,23,20,8.10
2018,12,14,23,21,8.10
2018,12,14,23,22,8.10
2018,12,14,23,23,8.00
2018,12,14,23,24,8.00
2018,12,14,23,25,7.90